When you browse on this site, cookies collect data to enhance your experience and personalize the content and advertising you see.
Visit our Privacy Policy to learn more. By continuing to use the site, you agree to this use of cookies and data.
  • en France
  • Liste des pays
  • À 7 jours
  • Température de l'eau
  • Carte satellitaire
  • Carte météo
  • Widgets météo
  • user-avatar
    Se connecter

    Météo par heure à Pernik

    Ce jour, 22 Mai, Mercredi

    Heure Température Précipitation Vent Pression Humidité
    00:00 +9°C° 0 mm 1 m/s 689 mmHg 84%
    01:00 +9°C° 0 mm 1 m/s 689 mmHg 85%
    02:00 +8°C° 0 mm 1 m/s 689 mmHg 85%
    03:00 +8°C° 0 mm 1 m/s 689 mmHg 85%
    04:00 +8°C° 0 mm 1 m/s 689 mmHg 85%
    05:00 +8°C° 0 mm 1 m/s 689 mmHg 85%
    06:00 +10°C° 0 mm 1 m/s 690 mmHg 78%
    07:00 +12°C° 0 mm 1 m/s 690 mmHg 72%
    08:00 +14°C° 0 mm 1 m/s 691 mmHg 66%
    09:00 +16°C° 0 mm 1 m/s 691 mmHg 60%
    10:00 +18°C° 0 mm 2 m/s 691 mmHg 53%
    11:00 +20°C° 0 mm 2 m/s 691 mmHg 47%
    12:00 +20°C° 0.1 mm 2 m/s 691 mmHg 46%
    13:00 +21°C° 0.1 mm 2 m/s 691 mmHg 45%
    14:00 +21°C° 0.1 mm 2 m/s 691 mmHg 44%
    15:00 +21°C° 0.2 mm 2 m/s 690 mmHg 46%
    16:00 +21°C° 0.2 mm 2 m/s 690 mmHg 48%
    17:00 +21°C° 0.2 mm 3 m/s 690 mmHg 50%
    18:00 +18°C° 0.1 mm 2 m/s 689 mmHg 58%
    19:00 +16°C° 0.1 mm 1 m/s 689 mmHg 66%
    20:00 +14°C° 0.1 mm 1 m/s 689 mmHg 74%
    21:00 +13°C° 0 mm 1 m/s 689 mmHg 77%
    22:00 +12°C° 0 mm 1 m/s 689 mmHg 80%
    23:00 +11°C° 0 mm 1 m/s 689 mmHg 83%

    Demain, 23 Mai, Jeudi

    Heure Température Précipitation Vent Pression Humidité
    00:00 +11°C° 0 mm 1 m/s 689 mmHg 85%
    01:00 +11°C° 0 mm 1 m/s 689 mmHg 86%
    02:00 +10°C° 0 mm 1 m/s 689 mmHg 87%
    03:00 +10°C° 0 mm 1 m/s 689 mmHg 88%
    04:00 +10°C° 0 mm 1 m/s 689 mmHg 89%
    05:00 +9°C° 0 mm 1 m/s 689 mmHg 90%
    06:00 +11°C° 0 mm 1 m/s 689 mmHg 84%
    07:00 +13°C° 0 mm 2 m/s 690 mmHg 78%
    08:00 +15°C° 0 mm 2 m/s 690 mmHg 72%
    09:00 +16°C° 0 mm 2 m/s 690 mmHg 67%
    10:00 +17°C° 0 mm 3 m/s 691 mmHg 62%
    11:00 +18°C° 0 mm 3 m/s 691 mmHg 58%
    12:00 +19°C° 0.1 mm 3 m/s 690 mmHg 57%
    13:00 +19°C° 0.1 mm 3 m/s 690 mmHg 56%
    14:00 +20°C° 0.1 mm 3 m/s 690 mmHg 55%
    15:00 +19°C° 0.2 mm 3 m/s 690 mmHg 56%
    16:00 +19°C° 0.2 mm 3 m/s 689 mmHg 58%
    17:00 +19°C° 0.2 mm 2 m/s 689 mmHg 60%
    18:00 +17°C° 0.2 mm 2 m/s 688 mmHg 68%
    19:00 +15°C° 0.2 mm 2 m/s 688 mmHg 75%
    20:00 +13°C° 0.2 mm 2 m/s 688 mmHg 82%
    21:00 +13°C° 0.2 mm 2 m/s 688 mmHg 85%
    22:00 +12°C° 0.2 mm 2 m/s 688 mmHg 88%
    23:00 +11°C° 0.2 mm 1 m/s 688 mmHg 91%

    Après-demain, 24 Mai, Vendredi

    Heure Température Précipitation Vent Pression Humidité
    00:00 +10°C° 0 mm 1 m/s 688 mmHg 92%
    01:00 +10°C° 0 mm 1 m/s 688 mmHg 93%
    02:00 +10°C° 0 mm 1 m/s 687 mmHg 94%
    03:00 +9°C° 0 mm 1 m/s 687 mmHg 94%
    04:00 +9°C° 0 mm 1 m/s 687 mmHg 95%
    05:00 +9°C° 0 mm 1 m/s 687 mmHg 95%
    06:00 +10°C° 0 mm 1 m/s 687 mmHg 89%
    07:00 +12°C° 0 mm 2 m/s 688 mmHg 84%
    08:00 +13°C° 0 mm 2 m/s 688 mmHg 79%
    09:00 +13°C° 0 mm 3 m/s 688 mmHg 73%
    10:00 +14°C° 0 mm 3 m/s 688 mmHg 68%
    11:00 +17°C° 0 mm 3 m/s 688 mmHg 63%
    12:00 +17°C° 0 mm 4 m/s 688 mmHg 60%
    13:00 +18°C° 0 mm 4 m/s 688 mmHg 57%
    14:00 +19°C° 0 mm 4 m/s 688 mmHg 55%
    15:00 +18°C° 0.1 mm 4 m/s 688 mmHg 58%
    16:00 +18°C° 0.1 mm 4 m/s 687 mmHg 61%
    17:00 +17°C° 0.1 mm 4 m/s 687 mmHg 64%
    18:00 +14°C° 0 mm 4 m/s 687 mmHg 71%
    19:00 +12°C° 0 mm 3 m/s 687 mmHg 78%
    20:00 +10°C° 0 mm 2 m/s 687 mmHg 85%
    21:00 +10°C° 0 mm 2 m/s 687 mmHg 88%
    22:00 +10°C° 0 mm 1 m/s 687 mmHg 90%
    23:00 +9°C° 0 mm 1 m/s 687 mmHg 92%

    25 Mai, Samedi

    Heure Température Précipitation Vent Pression Humidité
    00:00 +9°C° 0 mm 1 m/s 687 mmHg 92%
    01:00 +9°C° 0 mm 1 m/s 687 mmHg 93%
    02:00 +9°C° 0 mm 1 m/s 687 mmHg 93%
    03:00 +9°C° 0 mm 1 m/s 687 mmHg 93%
    04:00 +9°C° 0 mm 1 m/s 687 mmHg 93%
    05:00 +9°C° 0 mm 1 m/s 688 mmHg 93%
    06:00 +11°C° 0 mm 1 m/s 688 mmHg 86%
    07:00 +12°C° 0 mm 2 m/s 689 mmHg 80%
    08:00 +14°C° 0 mm 2 m/s 689 mmHg 73%
    09:00 +14°C° 0 mm 3 m/s 690 mmHg 67%
    10:00 +17°C° 0 mm 3 m/s 690 mmHg 61%
    11:00 +18°C° 0 mm 3 m/s 690 mmHg 55%
    12:00 +19°C° 0 mm 3 m/s 690 mmHg 52%
    13:00 +20°C° 0 mm 4 m/s 690 mmHg 50%
    14:00 +21°C° 0 mm 4 m/s 690 mmHg 47%
    15:00 +20°C° 0 mm 4 m/s 690 mmHg 49%
    16:00 +20°C° 0 mm 4 m/s 690 mmHg 50%
    17:00 +20°C° 0 mm 4 m/s 690 mmHg 52%
    18:00 +18°C° 0 mm 3 m/s 690 mmHg 60%
    19:00 +15°C° 0 mm 2 m/s 690 mmHg 68%
    20:00 +13°C° 0 mm 1 m/s 689 mmHg 76%
    21:00 +12°C° 0 mm 1 m/s 690 mmHg 78%
    22:00 +12°C° 0 mm 1 m/s 690 mmHg 81%
    23:00 +11°C° 0 mm 1 m/s 690 mmHg 83%

    26 Mai, Dimanche

    Heure Température Précipitation Vent Pression Humidité
    00:00 +10°C° 0 mm 1 m/s 690 mmHg 84%
    01:00 +10°C° 0 mm 1 m/s 690 mmHg 84%
    02:00 +10°C° 0 mm 1 m/s 690 mmHg 84%
    03:00 +9°C° 0 mm 1 m/s 690 mmHg 84%
    04:00 +9°C° 0 mm 1 m/s 690 mmHg 84%
    05:00 +9°C° 0 mm 1 m/s 690 mmHg 84%
    06:00 +11°C° 0 mm 1 m/s 690 mmHg 77%
    07:00 +14°C° 0 mm 1 m/s 691 mmHg 70%
    08:00 +16°C° 0 mm 1 m/s 691 mmHg 63%
    09:00 +19°C° 0 mm 1 m/s 691 mmHg 57%
    10:00 +21°C° 0 mm 1 m/s 692 mmHg 51%
    11:00 +23°C° 0 mm 1 m/s 692 mmHg 44%
    12:00 +23°C° 0 mm 1 m/s 692 mmHg 42%
    13:00 +24°C° 0 mm 2 m/s 692 mmHg 39%
    14:00 +25°C° 0 mm 2 m/s 691 mmHg 37%
    15:00 +24°C° 0 mm 2 m/s 691 mmHg 41%
    16:00 +24°C° 0 mm 2 m/s 691 mmHg 46%
    17:00 +23°C° 0 mm 2 m/s 691 mmHg 50%
    18:00 +20°C° 0 mm 2 m/s 690 mmHg 57%
    19:00 +19°C° 0 mm 1 m/s 690 mmHg 64%
    20:00 +16°C° 0 mm 1 m/s 690 mmHg 71%
    21:00 +15°C° 0 mm 1 m/s 690 mmHg 74%
    22:00 +14°C° 0 mm 1 m/s 690 mmHg 76%
    23:00 +12°C° 0 mm 0 m/s 690 mmHg 79%

    27 Mai, Lundi

    Heure Température Précipitation Vent Pression Humidité
    00:00 +12°C° 0 mm 0 m/s 690 mmHg 81%
    01:00 +12°C° 0 mm 0 m/s 690 mmHg 82%
    02:00 +13°C° 0 mm 1 m/s 690 mmHg 83%
    03:00 +11°C° 0 mm 0 m/s 690 mmHg 83%
    04:00 +11°C° 0 mm 0 m/s 690 mmHg 83%
    05:00 +11°C° 0 mm 0 m/s 690 mmHg 83%
    06:00 +13°C° 0 mm 0 m/s 691 mmHg 79%
    07:00 +14°C° 0 mm 0 m/s 691 mmHg 76%
    08:00 +15°C° 0 mm 0 m/s 692 mmHg 72%
    09:00 +17°C° 0 mm 0 m/s 692 mmHg 64%
    10:00 +19°C° 0 mm 0 m/s 692 mmHg 57%
    11:00 +22°C° 0 mm 0 m/s 693 mmHg 49%
    12:00 +24°C° 0 mm 1 m/s 693 mmHg 46%
    13:00 +25°C° 0 mm 1 m/s 693 mmHg 43%
    14:00 +26°C° 0 mm 1 m/s 693 mmHg 40%
    15:00 +26°C° 0 mm 1 m/s 692 mmHg 41%
    16:00 +25°C° 0 mm 1 m/s 692 mmHg 43%
    17:00 +25°C° 0 mm 1 m/s 692 mmHg 44%
    18:00 +23°C° 0 mm 1 m/s 692 mmHg 51%
    19:00 +21°C° 0 mm 1 m/s 691 mmHg 58%
    20:00 +18°C° 0 mm 1 m/s 691 mmHg 65%
    21:00 +18°C° 0 mm 1 m/s 691 mmHg 69%
    22:00 +16°C° 0 mm 1 m/s 691 mmHg 73%
    23:00 +14°C° 0 mm 0 m/s 691 mmHg 78%
    Voir plus